Location: Ambatotampy
(18.8181°S, 47.6186°E)
Time: 19:15:05
(UTC+00:00)

TSX-5 - Pass Details

Date: 21 January 2021
Orbit: 402 x 1325 km, 68.9° (Epoch: 07 March)

Event Time Altitude Azimuth Distance (km) Brightness Sun altitude
Exits shadow 01:43:32 10° 331° (NNW) 1,585 5.7 -10.6°
Maximum altitude 01:46:53 60° 251° (WSW) 491 3.3 -9.9°
Drops below altitude 10° 01:50:01 10° 169° (S) 1,473 6.5 -9.3°
Sets 01:52:01 0° 165° (SSE) 2,337 7.7 -8.8°
